TIME,DELAY(SENSOR),PRES,OXYGEN,RAWTEMP,T(OPTODE),TCPHASE,FLUOR,BETA(BETA700),BETA(BETA412),BETA(BETA440),CDOM,C(CSC),ED(ED411.90),ED(ED443.80),ED(ED489.40),ED(ED554.70),LU(LU412.20),LU(LU443.80),LU(LU489.40),LU(LU555.00),COMP,TILTX,TILTY,CHECK
1344205541,5804,862.2000122070312000,163.1959075927734400,430.2699890136719000,10.0479898452758790,39.7855796813964840,51,108,103,84,74,15397,2147452608,2147789988,2147577097,2147824393,2147309522,2147457307,2147747117,2148268169,1819,6,14,17065
1344209137,5803,6.0999999046325680,194.2290954589843800,503.8125000000000000,7.7607412338256840,38.8929214477539060,51,107,103,82,75,15376,2147440640,2147791497,2147581376,2147830875,2147303753,2147449590,2147759597,2148275419,3401,6,14,34073
1344212737,5804,821.0000000000000000,203.8081054687500000,514.1854858398438000,7.4353981018066410,38.4825210571289060,51,107,102,83,75,15386,2147435894,2147798134,2147582747,2147832859,2147303460,2147448228,2147762898,2148277860,188,6,14,49352
1344216337,5804,9.1000003814697270,206.6618041992187500,516.9918212890625000,7.3472499847412110,38.3602714538574200,52,106,100,83,75,15384,2147433865,2147793984,2147582564,2147832438,2147306112,2147450596,2147764096,2148278528,3490,6,14,56593
1344219937,5803,9.0000000000000000,207.2210998535156200,518.0203247070312000,7.3149299621582030,38.3457603454589840,50,105,102,83,75,15371,2147433252,2147797878,2147585865,2147831424,2147303945,2147448768,2147762075,2148280521,401,6,14,18827
1344223537,5802,9.3999996185302730,208.3489990234375000,518.2866821289062000,7.3065600395202640,38.2833786010742200,51,105,101,88,76,15365,2147430866,2147794166,2147587904,2147831433,2147301394,2147451913,2147759369,2148279424,3071,6,14,23541
1344227137,5803,9.6000003814697270,208.6331939697265600,518.7985229492188000,7.2904729843139650,38.2752494812011700,52,104,102,83,76,15360,2147433188,2147797942,2147586532,2147831222,2147302336,2147453741,2147759990,2148277824,3513,6,14,56201
1344230737,5804,9.1000003814697270,208.0447998046875000,520.0681152343750000,7.2505588531494140,38.3329086303710940,50,106,102,83,76,15368,2147433170,2147794340,2147584649,2147831030,2147306276,2147451282,2147761179,2148283776,3302,6,14,31080
1344234337,5807,90.0000000000000000,208.0648956298828000,520.6237182617188000,7.2330880165100100,38.3412208557128900,51,105,101,81,75,15367,2147436004,2147794752,2147585837,2147833133,2147309449,2147451190,2147761965,2148280027,20,6,14,49475
1344237937,5803,87.0000000000000000,210.5749969482422000,521.9182739257812000,7.1923727989196780,38.2164916992187500,51,107,102,81,76,15343,2147431753,2147797869,2147586459,2147830262,2147304064,2147449398,2147764635,2148279405,3469,6,14,60141
1344241537,5802,1004.0000000000000000,208.5482940673828000,521.1940917968750000,7.2151489257812500,38.3227882385253900,51,105,102,82,76,15348,2147431232,2147795812,2147587053,2147830793,2147306240,2147450358,2147761746,2148279844,3023,6,15,19439
1344245137,5804,10.6000003814697270,208.3399963378906200,520.6461181640625000,7.2323818206787110,38.3250999450683600,52,106,101,82,75,15340,2147435401,2147796909,2147587017,2147833965,2147303972,2147449325,2147764461,2148282779,132,6,14,15770
1344248737,5804,10.3000001907348630,208.4821929931640600,520.2783813476562000,7.2439460754394530,38.3107490539550800,50,106,102,81,76,15340,2147433270,2147796534,2147585261,2147830793,2147302939,2147452032,2147765485,2148278025,108,6,14,17113
1344252337,5808,10.1999998092651370,207.9577941894531200,520.0916137695312000,7.2498188018798830,38.3383216857910160,50,107,102,82,75,15337,2147433600,2147801078,2147584438,2147831762,2147304914,2147454189,2147763117,2148279826,2,6,14,30251
1344255937,5802,1054.0000000000000000,209.4971923828125000,520.6176147460938000,7.2332777976989750,38.2567291259765600,51,105,102,82,75,15338,2147433782,2147797824,2147586121,2147829312,2147306596,2147444086,2147765120,2148280758,3483,6,14,24814
1344259537,5806,10.3999996185302730,209.3211975097656200,521.1497802734375000,7.2165408134460450,38.2765693664550800,51,105,102,83,76,15334,2147436114,2147798555,2147581924,2147829138,2147305142,2147451446,2147761398,2148278445,3434,6,15,20333
1344263137,5803,10.1000003814697270,208.6988983154297000,521.2952270507812000,7.2119688987731930,38.3156700134277340,51,107,101,82,76,15339,2147438592,2147797568,2147584548,2147827867,2147304429,2147453229,2147764214,2148283373,323,6,14,38089
1344266737,5803,1051.0000000000000000,209.2669982910156200,521.7623291015625000,7.1972789764404300,38.2905387878418000,51,106,103,83,77,15336,2147436973,2147795968,2147584777,2147830555,2147305526,2147448777,2147765440,2148277467,3321,6,15,36367
1344270337,5802,10.6999998092651370,209.5196075439453000,522.5313720703125000,7.1730861663818360,38.2888908386230500,50,105,100,82,76,15333,2147437165,2147794651,2147588013,2147832795,2147302637,2147449609,2147763163,2148281408,98,6,14,23227
1344273937,5802,1017.0000000000000000,209.7277069091797000,521.9791870117188000,7.1904540061950680,38.2677497863769500,50,109,102,82,76,15334,2147437696,2147795437,2147585435,2147831798,2147301421,2147447817,2147764278,2148279780,164,6,14,47214
1344277537,5806,10.8000001907348630,210.8820953369140600,523.0015258789062000,7.1582927703857420,38.2174110412597660,51,105,103,82,76,15333,2147436964,2147796352,2147583204,2147835264,2147300608,2147454573,2147764187,2148282404,3473,6,15,7174
1344281137,5801,10.0000000000000000,211.5558013916015600,523.1973876953125000,7.1521301269531250,38.1822509765625000,51,105,101,82,76,15333,2147438500,2147798134,2147585024,2147831661,2147302948,2147448804,2147759588,2148277522,3268,6,14,61694
1344284737,5806,1032.0000000000000000,210.9523925781250000,523.0900878906250000,7.1555042266845700,38.2156982421875000,50,104,103,82,75,15332,2147436763,2147796891,2147586953,2147832018,2147301869,2147449609,2147761947,2148277248,66,6,14,32768
1344288337,5805,10.5000000000000000,210.6575012207031200,523.6566772460938000,7.1376757621765140,38.2429199218750000,50,105,101,83,74,15316,2147434093,2147796653,2147583835,2147831369,2147304457,2147452626,2147764516,2148279030,3296,6,14,55852
1344291937,5805,10.0000000000000000,210.9888000488281200,523.8707885742188000,7.1309380531311035,38.2269096374511700,51,104,102,81,76,15313,2147433810,2147796086,2147584923,2147828489,2147303049,2147450294,2147762934,2148278180,195,6,14,14361
1344295537,5801,1098.0000000000000000,211.8507995605468800,523.3682861328125000,7.1467528343200680,38.1677818298339840,51,108,101,82,75,15312,2147434651,2147794962,2147584018,2147832292,2147303981,2147452178,2147767140,2148280758,122,6,14,9797
1344299137,5803,10.1000003814697270,211.1293945312500000,522.9771728515625000,7.1590600013732910,38.2033805847168000,51,105,102,83,75,15311,2147433353,2147798857,2147583753,2147833106,2147304246,2147449206,2147763940,2148278198,228,6,14,55565
1344302737,5802,11.8000001907348630,209.2787933349609400,522.5562133789062000,7.1723060607910160,38.3042182922363300,51,105,103,83,75,15310,2147435803,2147796114,2147587437,2147831149,2147305645,2147450569,2147763858,2148280466,3043,6,14,20948
1344306337,5803,11.5000000000000000,210.4441070556640600,522.5460815429688000,7.1726231575012210,38.2355308532714840,51,110,101,81,76,15309,2147434468,2147797165,2147585737,2147833883,2147302180,2147452269,2147760749,2148280347,3457,6,14,63386
1344309937,5803,10.6000003814697270,208.6100006103515600,522.8502807617188000,7.1630520820617680,38.3487396240234400,51,105,103,82,76,15300,2147432100,2147794934,2147589056,2147836251,2147303862,2147450852,2147765686,2148277897,3302,6,14,14504
1344313537,5800,10.1000003814697270,207.3751983642578000,523.2941284179688000,7.1490879058837890,38.4293708801269500,51,105,102,82,77,15302,2147435803,2147796452,2147589211,2147829997,2147308324,2147452873,2147765549,2148276361,3139,6,14,37900
1344317137,5802,11.3999996185302730,208.1114044189453000,523.3176269531250000,7.1483497619628910,38.3856201171875000,50,105,103,83,75,15304,2147436489,2147794898,2147584091,2147832886,2147300598,2147451721,2147763794,2148275126,3309,6,14,4585
1344320737,5805,11.8000001907348630,208.9080963134765600,522.9539794921875000,7.1597862243652340,38.3330497741699200,50,105,102,82,76,15300,2147432850,2147795008,2147582080,2147833069,2147306148,2147450258,2147764982,2148281225,3447,6,15,29807
1344324337,5803,11.8000001907348630,209.3529968261718800,522.6456298828125000,7.1694908142089840,38.3010902404785160,51,105,103,82,75,15304,2147435236,2147799131,2147582674,2147830226,2147301906,2147455378,2147763739,2148280091,65,6,14,44652
1344327937,5803,11.1000003814697270,207.7859954833984400,523.2919921875000000,7.1491532325744630,38.4051589965820300,51,107,102,82,77,15301,2147435318,2147799981,2147588918,2147835446,2147300626,2147448566,2147766555,2148282240,348,6,14,7721
1344331537,5803,10.1999998092651370,209.0048980712890600,523.2119140625000000,7.1516737937927250,38.3315887451171900,51,108,102,81,75,15301,2147437430,2147795593,2147587565,2147831524,2147305133,2147449691,2147768795,2148278464,3571,6,14,48222
1344335137,5805,10.6000003814697270,209.6959991455078000,523.8546752929688000,7.1314449310302730,38.3025703430175800,51,107,103,82,76,15299,2147438912,2147797513,2147584100,2147834989,2147305526,2147449161,2147765476,2148279478,117,6,15,16269
1344338737,5802,1007.0000000000000000,210.1829071044922000,524.1328125000000000,7.1226959228515625,38.2786712646484400,51,105,101,82,77,15301,2147436260,2147797577,2147585024,2147832603,2147304402,2147449682,2147765897,2148281856,3526,6,14,49829
1344342337,5805,10.6999998092651370,209.3818054199218800,523.0858154296875000,7.1556429862976070,38.3076705932617200,51,106,101,82,76,15300,2147433243,2147797357,2147583689,2147831670,2147302436,2147450624,2147763712,2148282185,75,6,14,59548
1344345937,5804,11.0000000000000000,211.6909027099609400,524.6187744140625000,7.1073989868164060,38.1986999511718750,51,104,102,83,76,15299,2147437074,2147797952,2147584795,2147831478,2147302427,2147448475,2147760502,2148278637,361,6,14,18868
1344346256,5803,11.6999998092651370,211.0735015869140600,524.6699218750000000,7.1057891845703125,38.2361106872558600,50,106,102,82,76,15298,2147433197,2147798445,2147583634,2147832411,2147305334,2147452763,2147760896,2148277750,225,6,15,22138
